Time,TemperatureF,DewpointF,PressureIn,WindDirection,WindDirectionDegrees,WindSpeedMPH,WindSpeedGustMPH,Humidity,HourlyPrecipIn,Conditions,Clouds,dailyrainin,SoftwareType,DateUTC
2013-10-27 00:23:00,34.0,28.0,30.03,West,273,2.0,4.0,78,0.00,,,0.00,,2013-10-27 05:23:00,
2013-10-27 00:52:00,33.0,28.0,30.01,WSW,253,1.0,6.0,80,0.00,,,0.00,,2013-10-27 05:52:00,
2013-10-27 01:22:00,32.0,27.0,30.01,SW,222,6.0,9.0,81,0.00,,,0.00,,2013-10-27 06:22:00,
2013-10-27 01:42:00,30.0,27.0,30.01,WSW,240,3.0,7.0,87,0.00,,,0.00,,2013-10-27 06:42:00,
2013-10-27 01:53:00,31.0,28.0,30.01,WSW,240,3.0,4.0,87,0.00,,,0.00,,2013-10-27 06:53:00,
2013-10-27 02:12:00,32.0,28.0,30.01,WSW,240,1.0,4.0,86,0.00,,,0.00,,2013-10-27 07:12:00,
2013-10-27 02:22:00,32.0,28.0,30.00,WSW,240,1.0,3.0,85,0.00,,,0.00,,2013-10-27 07:22:00,
2013-10-27 02:42:00,31.0,27.0,29.99,SW,225,3.0,4.0,86,0.00,,,0.00,,2013-10-27 07:42:00,
2013-10-27 02:52:00,31.0,27.0,29.99,SW,214,3.0,5.0,86,0.00,,,0.00,,2013-10-27 07:52:00,
2013-10-27 03:22:00,31.0,27.0,29.98,SW,215,3.0,5.0,86,0.00,,,0.00,,2013-10-27 08:22:00,
2013-10-27 03:52:00,31.0,27.0,29.98,SW,223,3.0,5.0,86,0.00,,,0.00,,2013-10-27 08:52:00,
2013-10-27 04:21:00,29.0,26.0,29.96,SW,217,2.0,4.0,89,0.00,,,0.00,,2013-10-27 09:21:00,
2013-10-27 04:54:00,29.0,26.0,29.96,SW,216,2.0,4.0,89,0.00,,,0.00,,2013-10-27 09:54:00,
2013-10-27 05:12:00,29.0,26.0,29.96,SW,216,2.0,4.0,90,0.00,,,0.00,,2013-10-27 10:12:00,
2013-10-27 05:23:00,29.0,26.0,29.96,SW,216,2.0,4.0,90,0.00,,,0.00,,2013-10-27 10:23:00,
2013-10-27 05:53:00,28.0,26.0,29.96,SSW,209,3.0,5.0,91,0.00,,,0.00,,2013-10-27 10:53:00,
2013-10-27 06:22:00,28.0,26.0,29.96,SSW,210,3.0,5.0,92,0.00,,,0.00,,2013-10-27 11:22:00,
2013-10-27 06:52:00,27.0,25.0,29.95,SSW,212,5.0,7.0,92,0.00,,,0.00,,2013-10-27 11:52:00,
2013-10-27 07:12:00,28.0,26.0,29.94,SW,215,4.0,8.0,93,0.00,,,0.00,,2013-10-27 12:12:00,
2013-10-27 07:22:00,28.0,26.0,29.94,SW,215,4.0,8.0,93,0.00,,,0.00,,2013-10-27 12:22:00,
2013-10-27 07:52:00,28.0,26.0,29.92,SSW,209,6.0,10.0,92,0.00,,,0.00,,2013-10-27 12:52:00,
2013-10-27 08:12:00,28.0,26.0,29.92,SW,219,6.0,10.0,92,0.00,,,0.00,,2013-10-27 13:12:00,
2013-10-27 08:21:00,29.0,27.0,29.92,SW,216,5.0,10.0,92,0.00,,,0.00,,2013-10-27 13:21:00,
2013-10-27 08:42:00,29.0,27.0,29.91,SSW,211,5.0,10.0,92,0.00,,,0.00,,2013-10-27 13:42:00,
2013-10-27 08:52:00,30.0,28.0,29.92,SW,221,5.0,10.0,91,0.00,,,0.00,,2013-10-27 13:52:00,
2013-10-27 09:22:00,32.0,29.0,29.92,SSW,209,6.0,10.0,89,0.00,,,0.00,,2013-10-27 14:22:00,
2013-10-27 09:52:00,34.0,30.0,29.91,SSW,202,7.0,15.0,86,0.00,,,0.00,,2013-10-27 14:52:00,
2013-10-27 10:22:00,37.0,32.0,29.89,SSW,203,11.0,17.0,81,0.00,,,0.00,,2013-10-27 15:22:00,
2013-10-27 10:44:00,38.0,32.0,29.89,SSW,195,13.0,20.0,78,0.00,,,0.00,,2013-10-27 15:44:00,
2013-10-27 10:54:00,39.0,32.0,29.88,SW,221,12.0,18.0,76,0.00,,,0.00,,2013-10-27 15:54:00,
2013-10-27 11:24:00,43.0,33.0,29.88,SW,216,9.0,19.0,68,0.00,,,0.00,,2013-10-27 16:24:00,
2013-10-27 11:43:00,45.0,34.0,29.88,SSW,199,16.0,21.0,65,0.00,,,0.00,,2013-10-27 16:43:00,
2013-10-27 11:53:00,45.0,33.0,29.87,SSW,206,15.0,25.0,62,0.00,,,0.00,,2013-10-27 16:53:00,
2013-10-27 12:22:00,47.0,34.0,29.87,SW,232,11.0,23.0,61,0.00,,,0.00,,2013-10-27 17:22:00,
2013-10-27 12:53:00,49.0,34.0,29.85,SSW,208,14.0,19.0,56,0.00,,,0.00,,2013-10-27 17:53:00,
2013-10-27 13:22:00,51.0,34.0,29.83,SSW,211,13.0,21.0,53,0.00,,,0.00,,2013-10-27 18:22:00,
2013-10-27 13:43:00,52.0,34.0,29.81,SSW,207,15.0,23.0,50,0.00,,,0.00,,2013-10-27 18:43:00,
2013-10-27 13:52:00,53.0,33.0,29.82,SSW,204,10.0,21.0,47,0.00,,,0.00,,2013-10-27 18:52:00,
2013-10-27 14:22:00,55.0,34.0,29.82,West,266,11.0,15.0,45,0.00,,,0.00,,2013-10-27 19:22:00,
2013-10-27 14:42:00,56.0,35.0,29.82,West,262,9.0,17.0,45,0.00,,,0.00,,2013-10-27 19:42:00,
2013-10-27 14:52:00,56.0,34.0,29.81,WSW,257,9.0,18.0,43,0.00,,,0.00,,2013-10-27 19:52:00,
2013-10-27 15:12:00,57.0,35.0,29.81,WSW,257,8.0,15.0,43,0.00,,,0.00,,2013-10-27 20:12:00,
2013-10-27 15:22:00,57.0,34.0,29.81,SW,230,8.0,12.0,42,0.00,,,0.00,,2013-10-27 20:22:00,
2013-10-27 15:52:00,59.0,35.0,29.82,West,279,9.0,13.0,40,0.00,,,0.00,,2013-10-27 20:52:00,
2013-10-27 16:11:00,59.0,36.0,29.83,West,281,6.0,13.0,42,0.00,,,0.00,,2013-10-27 21:11:00,
2013-10-27 16:21:00,59.0,35.0,29.83,WNW,286,9.0,15.0,40,0.00,,,0.00,,2013-10-27 21:21:00,
2013-10-27 16:43:00,58.0,34.0,29.84,WNW,289,9.0,16.0,41,0.00,,,0.00,,2013-10-27 21:43:00,
2013-10-27 16:54:00,58.0,34.0,29.84,WNW,289,9.0,16.0,41,0.00,,,0.00,,2013-10-27 21:54:00,
2013-10-27 17:24:00,56.0,35.0,29.86,NW,308,7.0,14.0,45,0.00,,,0.00,,2013-10-27 22:24:00,
2013-10-27 17:43:00,55.0,35.0,29.87,NNW,331,5.0,11.0,46,0.00,,,0.00,,2013-10-27 22:43:00,
2013-10-27 17:54:00,54.0,34.0,29.88,NW,304,4.0,10.0,47,0.00,,,0.00,,2013-10-27 22:54:00,
2013-10-27 18:12:00,53.0,34.0,29.89,NNW,340,3.0,8.0,48,0.00,,,0.00,,2013-10-27 23:12:00,
2013-10-27 18:22:00,52.0,34.0,29.90,North,9,4.0,11.0,50,0.00,,,0.00,,2013-10-27 23:22:00,
2013-10-27 18:42:00,51.0,34.0,29.91,NNW,336,5.0,10.0,52,0.00,,,0.00,,2013-10-27 23:42:00,
2013-10-27 18:52:00,49.0,34.0,29.92,NNE,31,11.0,19.0,55,0.00,,,0.00,,2013-10-27 23:52:00,
2013-10-27 19:11:00,48.0,34.0,29.93,NNE,22,8.0,15.0,57,0.00,,,0.00,,2013-10-28 00:11:00,
2013-10-27 19:22:00,47.0,33.0,29.94,NNE,24,9.0,14.0,59,0.00,,,0.00,,2013-10-28 00:22:00,
2013-10-27 19:43:00,47.0,34.0,29.95,NNE,20,10.0,15.0,60,0.00,,,0.00,,2013-10-28 00:43:00,
2013-10-27 19:52:00,47.0,34.0,29.96,North,354,10.0,14.0,60,0.00,,,0.00,,2013-10-28 00:52:00,
2013-10-27 20:12:00,47.0,33.0,29.97,NE,37,9.0,19.0,59,0.00,,,0.00,,2013-10-28 01:12:00,
2013-10-27 20:21:00,46.0,33.0,29.98,NNE,12,7.0,11.0,60,0.00,,,0.00,,2013-10-28 01:21:00,
2013-10-27 20:52:00,45.0,33.0,30.00,NE,35,5.0,12.0,63,0.00,,,0.00,,2013-10-28 01:52:00,
2013-10-27 21:12:00,44.0,33.0,30.01,NE,39,7.0,15.0,64,0.00,,,0.00,,2013-10-28 02:12:00,
2013-10-27 21:22:00,44.0,33.0,30.02,NE,43,7.0,12.0,64,0.00,,,0.00,,2013-10-28 02:22:00,
2013-10-27 21:42:00,44.0,33.0,30.03,NE,49,8.0,14.0,65,0.00,,,0.00,,2013-10-28 02:42:00,
2013-10-27 21:53:00,43.0,32.0,30.04,NE,45,10.0,15.0,66,0.00,,,0.00,,2013-10-28 02:53:00,
2013-10-27 22:22:00,42.0,33.0,30.06,NE,34,11.0,23.0,70,0.00,,,0.00,,2013-10-28 03:22:00,
2013-10-27 22:44:00,42.0,33.0,30.07,NE,49,8.0,15.0,71,0.00,,,0.00,,2013-10-28 03:44:00,
2013-10-27 22:54:00,41.0,33.0,30.08,NE,53,9.0,15.0,72,0.00,,,0.00,,2013-10-28 03:54:00,
2013-10-27 23:13:00,41.0,33.0,30.09,NNE,22,5.0,11.0,73,0.00,,,0.00,,2013-10-28 04:13:00,
2013-10-27 23:23:00,41.0,33.0,30.10,NNE,30,9.0,19.0,73,0.00,,,0.00,,2013-10-28 04:23:00,
2013-10-27 23:53:00,40.0,32.0,30.12,NE,35,9.0,14.0,73,0.00,,,0.00,,2013-10-28 04:53:00,